Weather History for Lincoln, NE

Change the Weather History Date:

Thursday, November 10, 2011

  Actual Average Record
Temperature  
Mean Temperature 36 °F 42 °F  
Max Temperature 49 °F 54 °F 79 °F (1927)
Min Temperature 23 °F 30 °F 4 °F (1986)
Degree Days  
Heating Degree Days 29 23  
Month to date heating degree days 222 207  
Since 1 July heating degree days 700 686  
Cooling Degree Days 0 0  
Month to date cooling degree days 0 0  
Year to date cooling degree days 1296 1173  
Moisture  
Dew Point 19 °F    
Average Humidity 52    
Maximum Humidity 75    
Minimum Humidity 28    
Precipitation  
Precipitation 0.00 in 0.05 in 1.83 in (1915)
Month to date precipitation 1.61 0.54  
Year to date precipitation 27.54 27.11  
Snow  
Snow 0.00 in 0.00 in - ()
Month to date snowfall T 0.4  
Since 1 July snowfall T 1.1  
Snow Depth 0.00 in    
Sea Level Pressure  
Sea Level Pressure 30.24 in    
Wind  
Wind Speed 6 mph (WSW)    
Max Wind Speed 15 mph    
Max Gust Speed 20 mph    
Visibility 10 miles    
Events      
T = Trace of Precipitation, MM = Missing Value Source: NWS Daily Summary

Daily Weather History Graph

Daily Weather History Graph

Search for Another Location

Airport:

Trip Planner

Search our weather history database for the weather conditions in past years. The results will help you decide how hot, cold, wet, or windy it might be!

Date:

Astronomy

Nov. 10, 2011 Rise Set
Actual Time 7:07 AM CST 5:13 PM CST
Civil Twilight 6:38 AM CST 5:42 PM CST
Nautical Twilight 6:06 AM CST 6:15 PM CST
Astronomical Twilight 5:33 AM CST 6:47 PM CST
Moon 5:01 PM CST (11/10) 7:01 AM CST (11/10)
Length of Visible Light 11h 03m
Length of Day
10h 05m
Full, 100% of the Moon is Illuminated
Nov 10
Full
Nov 10
Full
Nov 18
Last Quarter
Nov 25
New
Dec 2
First Quarter

Hourly Weather History & Observations

Time (CST) Temp. Windchill Dew Point Humidity Pressure Visibility Wind Dir Wind Speed Gust Speed Precip Events Conditions
12:54 AM 32.0 °F 26.4 °F 18.0 °F 56% 30.33 in 10.0 mi West 5.8 mph - N/A   Clear
1:54 AM 28.0 °F 24.2 °F 19.0 °F 69% 30.33 in 10.0 mi SW 3.5 mph - N/A   Clear
2:54 AM 28.0 °F - 19.0 °F 69% 30.33 in 10.0 mi Calm Calm - N/A   Clear
3:54 AM 30.9 °F 26.2 °F 17.1 °F 57% 30.32 in 10.0 mi NW 4.6 mph - N/A   Clear
4:54 AM 28.0 °F - 16.0 °F 61% 30.33 in 10.0 mi Calm Calm - N/A   Clear
5:54 AM 24.8 °F 20.5 °F 17.6 °F 74% 30.31 in 10.0 mi SW 3.5 mph - N/A   Clear
6:54 AM 24.1 °F - 16.0 °F 71% 30.35 in 10.0 mi Calm Calm - N/A   Clear
7:54 AM 27.0 °F 23.0 °F 17.1 °F 66% 30.37 in 10.0 mi WNW 3.5 mph - N/A   Clear
8:54 AM 34.0 °F 28.0 °F 19.0 °F 54% 30.37 in 10.0 mi WNW 6.9 mph - N/A   Clear
9:54 AM 39.0 °F 31.4 °F 19.0 °F 45% 30.35 in 10.0 mi NNW 12.7 mph - N/A   Clear
10:54 AM 42.1 °F 34.9 °F 17.1 °F 37% 30.34 in 10.0 mi NNW 13.8 mph - N/A   Clear
11:54 AM 44.6 °F 39.7 °F 17.6 °F 34% 30.28 in 10.0 mi NW 9.2 mph - N/A   Clear
12:54 PM 46.9 °F - 16.0 °F 29% 30.27 in 10.0 mi WNW 12.7 mph - N/A   Clear
1:54 PM 48.0 °F - 17.1 °F 29% 30.25 in 10.0 mi NW 12.7 mph - N/A   Clear
2:54 PM 48.0 °F - 17.1 °F 29% 30.22 in 10.0 mi Variable 4.6 mph - N/A   Clear
3:54 PM 48.0 °F - 18.0 °F 30% 30.20 in 10.0 mi West 6.9 mph - N/A   Clear
4:54 PM 44.1 °F 42.5 °F 21.0 °F 40% 30.17 in 10.0 mi SSW 3.5 mph - N/A   Clear
5:54 PM 39.0 °F 35.7 °F 21.9 °F 50% 30.16 in 10.0 mi SSE 4.6 mph - N/A   Clear
6:54 PM 37.0 °F 33.3 °F 23.0 °F 57% 30.15 in 10.0 mi South 4.6 mph - N/A   Clear
7:54 PM 35.1 °F 29.3 °F 21.9 °F 59% 30.12 in 10.0 mi SSE 6.9 mph - N/A   Clear
8:54 PM 34.0 °F 28.8 °F 21.9 °F 61% 30.11 in 10.0 mi SSE 5.8 mph - N/A   Clear
9:54 PM 32.0 °F 25.6 °F 21.9 °F 66% 30.07 in 10.0 mi SSE 6.9 mph - N/A   Clear
10:54 PM 28.0 °F 20.8 °F 21.9 °F 78% 30.05 in 10.0 mi South 6.9 mph - N/A   Clear
11:54 PM 30.9 °F 25.2 °F 23.0 °F 72% 30.00 in 10.0 mi South 5.8 mph - N/A   Clear